GW5690 Weather Reports


time (UTC)temp
C
wind
direction
speed
KPH
gust
KPH
rain 1hr
cm
rain 24hr
cm
rain mn
cm
humidity
%
barometer
mb
20260507122725 22 299 11.3 22.5 0.00 0.00 0.00 48 1016.4
20260507121803 23 291 4.8 22.5 0.00 0.00 0.00 46 1016.4
20260507120903 22 330 4.8 12.9 0.00 0.00 0.00 45 1016.4
20260507120024 22 308 8.0 14.5 0.00 0.00 0.00 47 1016.5
20260507115404 23 322 6.4 17.7 0.00 0.00 0.00 45 1016.6
20260507114503 23 351 4.8 17.7 0.00 0.00 0.00 46 1016.8
20260507113603 23 334 4.8 16.1 0.00 0.00 0.00 45 1016.8
20260507112703 22 340 4.8 20.9 0.00 0.00 0.00 46 1016.8
20260507111803 22 338 6.4 20.9 0.00 0.00 0.00 46 1017.0
20260507110903 22 321 6.4 14.5 0.00 0.00 0.00 46 1017.1
20260507110003 22 308 8.0 17.7 0.00 0.00 0.00 48 1017.4
20260507105404 22 304 9.7 20.9 0.00 0.00 0.00 48 1017.4
20260507104503 22 307 8.0 20.9 0.00 0.00 0.00 49 1017.5
20260507103603 22 314 8.0 17.7 0.00 0.00 0.00 48 1017.4
20260507102703 22 308 6.4 17.7 0.00 0.00 0.00 48 1017.5
20260507101803 22 302 8.0 20.9 0.00 0.00 0.00 47 1017.5
20260507100904 22 330 6.4 20.9 0.00 0.00 0.00 49 1017.5
20260507100003 21 312 8.0 16.1 0.00 0.00 0.00 49 1017.9
20260507095403 22 291 6.4 16.1 0.00 0.00 0.00 47 1017.9
20260507094503 21 358 6.4 20.9 0.00 0.00 0.00 47 1017.9
20260507093603 21 311 4.8 17.7 0.00 0.00 0.00 51 1018.2
20260507092703 21 308 8.0 16.1 0.00 0.00 0.00 50 1018.2
20260507091803 21 304 6.4 16.1 0.00 0.00 0.00 52 1018.3
20260507090903 21 318 9.7 17.7 0.00 0.00 0.00 53 1018.4
20260507090004 21 312 3.2 11.3 0.00 0.00 0.00 52 1018.3
20260507085403 20 276 4.8 14.5 0.00 0.00 0.00 51 1018.4
20260507084524 21 291 6.4 14.5 0.00 0.00 0.00 52 1018.7
20260507083603 20 291 8.0 16.1 0.00 0.00 0.00 53 1018.5
20260507082724 20 338 6.4 14.5 0.00 0.00 0.00 53 1018.7
20260507081824 20 316 8.0 16.1 0.00 0.00 0.00 54 1018.6
20260507080903 20 313 6.4 14.5 0.00 0.00 0.00 55 1018.9
20260507080005 20 296 6.4 14.5 0.00 0.00 0.00 55 1018.7
20260507075403 20 312 8.0 14.5 0.00 0.00 0.00 56 1018.6
20260507074504 20 331 6.4 12.9 0.00 0.00 0.00 59 1018.8
20260507073604 20 273 6.4 12.9 0.00 0.00 0.00 59 1018.8
20260507072704 19 300 6.4 14.5 0.00 0.00 0.00 60 1018.8
20260507071824 19 310 6.4 14.5 0.00 0.00 0.00 59 1018.7
20260507070903 19 339 4.8 12.9 0.00 0.00 0.00 62 1018.6
20260507070008 19 302 4.8 12.9 0.00 0.00 0.00 62 1018.5
20260507065403 18 317 4.8 12.9 0.00 0.00 0.00 63 1018.4
20260507064504 18 304 6.4 12.9 0.00 0.00 0.00 65 1018.7
20260507063603 18 338 6.4 16.1 0.00 0.00 0.00 66 1018.5
20260507062703 17 322 8.0 16.1 0.00 0.00 0.00 67 1018.7
20260507061803 17 318 8.0 17.7 0.00 0.00 0.00 68 1018.6
20260507060903 17 302 6.4 16.1 0.00 0.00 0.00 67 1018.7
20260507060005 16 328 6.4 14.5 0.00 0.00 0.00 68 1018.9
20260507055404 17 318 8.0 14.5 0.00 0.00 0.00 69 1019.1
20260507054503 17 314 6.4 14.5 0.00 0.00 0.00 70 1019.0
20260507053624 16 310 8.0 16.1 0.00 0.00 0.00 71 1019.0
20260507052703 16 305 6.4 14.5 0.00 0.00 0.00 72 1018.8
20260507051803 15 298 6.4 12.9 0.00 0.00 0.00 76 1019.0
20260507050903 15 302 6.4 14.5 0.00 0.00 0.00 77 1019.0
20260507050004 14 305 8.0 14.5 0.00 0.00 0.00 77 1019.1
20260507045425 14 311 8.0 14.5 0.00 0.00 0.00 78 1018.9
20260507044503 14 306 8.0 14.5 0.00 0.00 0.00 78 1019.0
20260507043603 13 313 6.4 11.3 0.00 0.00 0.00 79 1019.0
20260507042703 13 308 6.4 14.5 0.00 0.00 0.00 80 1019.0
20260507041803 13 310 6.4 11.3 0.00 0.00 0.00 80 1019.1
20260507040903 13 322 3.2 9.7 0.00 0.00 0.00 80 1018.9
20260507040003 13 312 3.2 6.4 0.00 0.00 0.00 81 1018.9
20260507035405 12 315 1.6 4.8 0.00 0.00 0.00 81 1018.9
20260507034524 12 314 3.2 6.4 0.00 0.00 0.00 82 1018.9
20260507033603 12 313 4.8 9.7 0.00 0.00 0.00 83 1019.1
20260507032703 12 304 6.4 9.7 0.00 0.00 0.00 83 1018.6
20260507031803 12 320 3.2 9.7 0.00 0.00 0.00 83 1018.5
20260507030903 12 341 3.2 12.9 0.00 0.00 0.00 83 1018.5
20260507030003 12 349 4.8 12.9 0.00 0.00 0.00 83 1018.3
20260507025403 12 345 3.2 11.3 0.00 0.00 0.00 84 1018.2
20260507024524 12 347 4.8 11.3 0.00 0.00 0.00 84 1018.3
20260507023603 12 328 3.2 9.7 0.00 0.00 0.00 84 1018.0
20260507022704 12 332 3.2 6.4 0.00 0.00 0.00 85 1018.1
20260507021803 12 324 3.2 9.7 0.00 0.00 0.00 85 1018.0
20260507020925 12 310 6.4 12.9 0.00 0.00 0.00 85 1017.7
20260507020004 11 306 8.0 12.9 0.00 0.00 0.00 86 1017.7
20260507015403 11 308 6.4 11.3 0.00 0.00 0.00 86 1017.7
20260507014503 12 308 6.4 11.3 0.00 0.00 0.00 86 1017.6
20260507013604 12 309 6.4 11.3 0.00 0.00 0.00 85 1017.6
20260507012704 12 307 6.4 11.3 0.00 0.00 0.00 84 1017.5
20260507011824 12 311 4.8 9.7 0.00 0.00 0.00 85 1017.4
20260507010003 12 310 8.0 11.3 0.00 0.00 0.00 84 1017.3
20260507005403 12 304 8.0 11.3 0.00 0.00 0.00 84 1017.6
20260507004504 12 310 6.4 11.3 0.00 0.00 0.00 85 1017.5
20260507003603 12 306 4.8 9.7 0.00 0.00 0.00 85 1017.2
20260507002704 12 311 6.4 11.3 0.00 0.00 0.00 84 1017.3
20260507001803 12 308 8.0 11.3 0.00 0.00 0.00 84 1017.2
20260507000903 12 310 8.0 11.3 0.00 0.00 0.00 84 1017.1
20260507000023 12 310 6.4 9.7 0.00 0.00 0.00 84 1017.0
20260506235402 13 312 3.2 6.4 0.00 0.00 0.00 83 1017.1
20260506234502 13 309 1.6 4.8 0.00 0.00 0.00 83 1017.4
20260506233602 13 306 4.8 9.7 0.00 0.00 0.00 83 1017.0
20260506232702 13 311 6.4 11.3 0.00 0.00 0.00 83 1017.0
20260506231802 13 309 6.4 11.3 0.00 0.00 0.00 83 1017.0
20260506230902 13 308 8.0 11.3 0.00 0.00 0.00 83 1017.1
20260506230002 13 308 8.0 12.9 0.00 0.00 0.00 82 1017.3
20260506225402 13 305 6.4 11.3 0.00 0.00 0.00 82 1017.3
20260506224502 13 311 8.0 12.9 0.00 0.00 0.00 82 1017.4
20260506223602 13 312 8.0 12.9 0.00 0.00 0.00 82 1017.1
20260506222702 13 309 8.0 11.3 0.00 0.00 0.00 82 1017.3
20260506221802 13 312 8.0 11.3 0.00 0.00 0.00 82 1017.5
20260506220923 13 311 4.8 9.7 0.00 0.00 0.00 82 1017.3
20260506220023 13 307 6.4 11.3 0.00 0.00 0.00 81 1017.6
20260506215402 13 309 6.4 9.7 0.00 0.00 0.00 82 1017.4
20260506214502 13 307 8.0 11.3 0.00 0.00 0.00 82 1017.4
20260506213602 13 307 8.0 12.9 0.00 0.00 0.00 82 1017.5
20260506212702 13 302 11.3 16.1 0.00 0.00 0.00 81 1017.6
20260506211802 13 301 9.7 14.5 0.00 0.00 0.00 81 1017.6
20260506210903 13 310 9.7 14.5 0.00 0.00 0.00 80 1017.6
20260506210023 14 309 9.7 14.5 0.00 0.00 0.00 80 1017.7
20260506205403 14 308 9.7 14.5 0.00 0.00 0.00 79 1017.6
20260506204502 14 307 9.7 14.5 0.00 0.00 0.00 78 1017.5
20260506203603 14 309 9.7 16.1 0.00 0.00 0.00 77 1017.5
20260506202702 15 314 11.3 20.9 0.00 0.00 0.00 76 1017.3
20260506201802 15 311 11.3 20.9 0.00 0.00 0.00 76 1017.6
20260506200902 15 315 6.4 11.3 0.00 0.00 0.00 75 1017.2
20260506200002 15 305 8.0 12.9 0.00 0.00 0.00 74 1017.1
20260506195402 15 300 8.0 12.9 0.00 0.00 0.00 73 1017.0
20260506194502 16 307 8.0 12.9 0.00 0.00 0.00 73 1017.1
20260506193602 16 313 9.7 14.5 0.00 0.00 0.00 73 1017.1
20260506192703 16 312 8.0 11.3 0.00 0.00 0.00 72 1016.9
20260506191802 16 308 8.0 16.1 0.00 0.00 0.00 71 1016.9
20260506190904 16 308 8.0 14.5 0.00 0.00 0.00 70 1017.0
20260506190003 16 309 6.4 12.9 0.00 0.00 0.00 71 1016.8
20260506185423 16 312 6.4 11.3 0.00 0.00 0.00 71 1016.9
20260506184502 16 311 9.7 14.5 0.00 0.00 0.00 71 1016.9
20260506183603 17 310 9.7 14.5 0.00 0.00 0.00 70 1016.7
20260506182724 17 314 8.0 14.5 0.00 0.00 0.00 68 1016.6
20260506181803 17 308 9.7 14.5 0.00 0.00 0.00 67 1016.4
20260506180903 18 312 6.4 11.3 0.00 0.00 0.00 66 1016.5
20260506180003 18 319 6.4 11.3 0.00 0.00 0.00 66 1016.4
20260506175402 18 314 6.4 11.3 0.00 0.00 0.00 65 1016.5
20260506174502 18 310 8.0 11.3 0.00 0.00 0.00 63 1016.5
20260506173602 18 315 6.4 12.9 0.00 0.00 0.00 60 1016.1
20260506172702 19 311 6.4 12.9 0.00 0.00 0.00 59 1016.0
20260506171802 19 310 8.0 12.9 0.00 0.00 0.00 59 1016.0
20260506170903 19 308 8.0 16.1 0.00 0.00 0.00 58 1015.6
20260506170004 19 313 6.4 16.1 0.00 0.00 0.00 58 1015.7
20260506165403 20 325 4.8 11.3 0.00 0.00 0.00 59 1015.8
20260506164505 20 329 4.8 12.9 0.00 0.00 0.00 58 1015.6
20260506163603 20 316 8.0 16.1 0.00 0.00 0.00 58 1015.4
20260506162723 20 307 6.4 16.1 0.00 0.00 0.00 59 1015.4
20260506161802 20 312 8.0 12.9 0.00 0.00 0.00 58 1015.3
20260506160903 20 314 9.7 14.5 0.00 0.00 0.00 56 1015.1
20260506160003 20 305 8.0 14.5 0.00 0.00 0.00 56 1015.0
20260506155403 20 305 9.7 14.5 0.00 0.00 0.00 55 1015.1
20260506154503 21 305 9.7 14.5 0.00 0.00 0.00 55 1014.8
20260506153603 21 306 8.0 12.9 0.00 0.00 0.00 53 1015.0
20260506152703 21 313 6.4 12.9 0.00 0.00 0.00 52 1014.7
20260506151803 21 312 8.0 12.9 0.00 0.00 0.00 53 1014.8
20260506150903 21 306 8.0 12.9 0.00 0.00 0.00 52 1014.9
20260506150003 21 313 9.7 14.5 0.00 0.00 0.00 52 1014.8
20260506145403 21 313 8.0 14.5 0.00 0.00 0.00 52 1014.8
20260506144503 22 318 4.8 11.3 0.00 0.00 0.00 51 1014.8
20260506143605 22 329 3.2 11.3 0.00 0.00 0.00 50 1014.9
20260506142724 22 337 4.8 14.5 0.00 0.00 0.00 51 1014.9
20260506141803 21 326 4.8 14.5 0.00 0.00 0.00 51 1014.7
20260506140903 21 322 6.4 16.1 0.00 0.00 0.00 51 1014.9
20260506140002 22 319 6.4 14.5 0.00 0.00 0.00 50 1015.0
20260506135403 22 325 8.0 14.5 0.00 0.00 0.00 50 1014.9
20260506134524 21 310 9.7 16.1 0.00 0.00 0.00 50 1014.9
20260506133603 22 280 6.4 14.5 0.00 0.00 0.00 50 1014.8
20260506132702 22 288 4.8 11.3 0.00 0.00 0.00 49 1014.9
20260506131803 22 297 4.8 12.9 0.00 0.00 0.00 49 1015.1
20260506130925 22 281 4.8 11.3 0.00 0.00 0.00 48 1015.0
20260506130005 21 298 8.0 14.5 0.00 0.00 0.00 48 1015.3
20260506125403 21 305 8.0 17.7 0.00 0.00 0.00 49 1015.2
20260506124503 21 315 8.0 17.7 0.00 0.00 0.00 49 1015.2
20260506123624 21 351 8.0 22.5 0.00 0.00 0.00 50 1015.4